HAZ6103 ZUTF-ZLDH

Flight info

Callsign HAZ6103
Flight time 2h 12m
Altitude 34100
Route BOKIR9G BOKIR W179 OMBON W195 VIDEK/K0857S1010 W195 LAXAL/K0856S1040 W195 UPKOD W565 DNC W622 BUKPU W197 ANDIM B215 TODOD TODOD9
Aircraft A321/M-SDE3FGHIRWY/LB1

Departure

Time 2026-04-27 15:39
Airport Chengdu Tianfu International Airport (ZUTF)

Arrival

Time 2026-04-27 17:51
Airport Dunhuang Mogao International Airport (ZLDH)
Time Latitude Longitude Altitude Speed Heading
2026-04-27 15:12 30.32008 104.43857 1450 ft 0 kts 94°
2026-04-27 15:24 30.32009 104.43836 1449 ft 4 kts 97°
2026-04-27 15:24 30.32014 104.43805 1445 ft 4 kts 104°
2026-04-27 15:24 30.32022 104.43775 1448 ft 4 kts 117°
2026-04-27 15:24 30.32037 104.43752 1448 ft 4 kts 151°
2026-04-27 15:25 30.32043 104.43748 1449 ft 0 kts 160°
2026-04-27 15:29 30.32040 104.43749 1449 ft 2 kts 160°
2026-04-27 15:29 30.32013 104.43761 1445 ft 6 kts 159°
2026-04-27 15:30 30.31957 104.43785 1450 ft 11 kts 160°
2026-04-27 15:30 30.31880 104.43772 1450 ft 13 kts 242°
2026-04-27 15:30 30.31806 104.43694 1450 ft 16 kts 241°
2026-04-27 15:30 30.31834 104.43550 1450 ft 21 kts 293°
2026-04-27 15:31 30.31803 104.43424 1451 ft 17 kts 271°
2026-04-27 15:31 30.31716 104.43333 1451 ft 20 kts 202°
2026-04-27 15:31 30.31569 104.43264 1451 ft 25 kts 202°
2026-04-27 15:31 30.31394 104.43182 1451 ft 28 kts 202°
2026-04-27 15:32 30.31218 104.43099 1452 ft 27 kts 202°
2026-04-27 15:32 30.31157 104.43014 1452 ft 7 kts 289°
2026-04-27 15:32 30.31138 104.42955 1451 ft 10 kts 217°
2026-04-27 15:32 30.31066 104.42918 1451 ft 13 kts 201°
2026-04-27 15:33 30.30978 104.42876 1452 ft 15 kts 202°
2026-04-27 15:33 30.30876 104.42828 1452 ft 17 kts 202°
2026-04-27 15:33 30.30759 104.42773 1452 ft 19 kts 202°
2026-04-27 15:33 30.30626 104.42711 1450 ft 22 kts 202°
2026-04-27 15:34 30.30479 104.42641 1452 ft 24 kts 202°
2026-04-27 15:34 30.30314 104.42564 1452 ft 27 kts 202°
2026-04-27 15:34 30.30137 104.42481 1452 ft 26 kts 201°
2026-04-27 15:34 30.29974 104.42404 1452 ft 25 kts 202°
2026-04-27 15:35 30.29820 104.42331 1451 ft 23 kts 202°
2026-04-27 15:35 30.29674 104.42264 1451 ft 22 kts 201°
2026-04-27 15:35 30.29539 104.42201 1451 ft 21 kts 202°
2026-04-27 15:35 30.29410 104.42139 1450 ft 19 kts 202°
2026-04-27 15:36 30.29290 104.42083 1450 ft 18 kts 202°
2026-04-27 15:36 30.29181 104.42031 1450 ft 17 kts 202°
2026-04-27 15:36 30.29078 104.41984 1447 ft 15 kts 202°
2026-04-27 15:36 30.29006 104.41917 1447 ft 13 kts 261°
2026-04-27 15:37 30.29030 104.41827 1449 ft 11 kts 293°
2026-04-27 15:37 30.29072 104.41771 1448 ft 8 kts
2026-04-27 15:37 30.29102 104.41780 1449 ft 0 kts 20°
2026-04-27 15:37 30.29161 104.41807 1449 ft 36 kts 22°
2026-04-27 15:38 30.29612 104.42018 1451 ft 101 kts 22°
2026-04-27 15:38 30.30411 104.42394 1453 ft 148 kts 22°
2026-04-27 15:38 30.31479 104.42881 1477 ft 181 kts 22°
2026-04-27 15:38 30.32573 104.43383 2024 ft 179 kts 18°
2026-04-27 15:39 30.33778 104.43716 2671 ft 177 kts 10°
2026-04-27 15:39 30.34995 104.43902 3241 ft 176 kts
2026-04-27 15:39 30.36276 104.44065 3383 ft 196 kts
2026-04-27 15:39 30.37711 104.44252 3525 ft 220 kts
2026-04-27 15:40 30.39279 104.44496 3933 ft 232 kts 16°
2026-04-27 15:40 30.40739 104.45252 4574 ft 236 kts 30°
2026-04-27 15:40 30.42182 104.46183 5260 ft 240 kts 30°
2026-04-27 15:40 30.43660 104.47125 5878 ft 246 kts 30°
2026-04-27 15:41 30.45176 104.48090 6522 ft 251 kts 31°
2026-04-27 15:41 30.46722 104.49071 7124 ft 256 kts 31°
2026-04-27 15:41 30.48299 104.50075 7701 ft 261 kts 31°
2026-04-27 15:41 30.49908 104.51100 8309 ft 266 kts 31°
2026-04-27 15:42 30.51546 104.52145 8929 ft 271 kts 31°
2026-04-27 15:42 30.53191 104.53197 9506 ft 276 kts 31°
2026-04-27 15:42 30.54885 104.54282 10082 ft 281 kts 31°
2026-04-27 15:42 30.56647 104.55412 10296 ft 300 kts 31°
2026-04-27 15:43 30.58536 104.56625 10420 ft 320 kts 31°
2026-04-27 15:43 30.60545 104.57915 10531 ft 340 kts 31°
2026-04-27 15:43 30.62670 104.59276 10660 ft 358 kts 31°
2026-04-27 15:43 30.64909 104.60709 10784 ft 375 kts 30°
2026-04-27 15:44 30.67217 104.62185 11175 ft 382 kts 30°
2026-04-27 15:44 30.69589 104.63616 11643 ft 388 kts 23°
2026-04-27 15:44 30.72236 104.64399 12092 ft 398 kts
2026-04-27 15:44 30.74978 104.64192 12503 ft 407 kts 347°
2026-04-27 15:45 30.77653 104.63014 12895 ft 415 kts 336°
2026-04-27 15:45 30.80260 104.61651 13359 ft 419 kts 335°
2026-04-27 15:45 30.82958 104.60220 13864 ft 421 kts 335°
2026-04-27 15:45 30.85627 104.58799 14342 ft 423 kts 334°
2026-04-27 15:46 30.88305 104.57376 14800 ft 425 kts 334°
2026-04-27 15:46 30.91003 104.55946 15199 ft 428 kts 334°
2026-04-27 15:46 30.93691 104.54525 15634 ft 430 kts 334°
2026-04-27 15:46 30.96421 104.53086 16087 ft 432 kts 333°
2026-04-27 15:47 30.99166 104.51642 16549 ft 433 kts 334°
2026-04-27 15:47 31.01919 104.50195 16982 ft 435 kts 334°
2026-04-27 15:47 31.04688 104.48737 17407 ft 438 kts 333°
2026-04-27 15:47 31.07473 104.47268 17809 ft 440 kts 333°
2026-04-27 15:48 31.10269 104.45792 18218 ft 442 kts 333°
2026-04-27 15:48 31.13083 104.44310 18571 ft 444 kts 333°
2026-04-27 15:48 31.15906 104.42823 18911 ft 447 kts 333°
2026-04-27 15:49 31.21550 104.39831 19580 ft 451 kts 333°
2026-04-27 15:49 31.24509 104.38556 19907 ft 456 kts 342°
2026-04-27 15:49 31.27639 104.37852 20232 ft 462 kts 352°
2026-04-27 15:49 31.30862 104.37639 20536 ft 465 kts 355°
2026-04-27 15:50 31.34107 104.37470 20848 ft 468 kts 355°
2026-04-27 15:50 31.37363 104.37293 21163 ft 470 kts 354°
2026-04-27 15:50 31.40636 104.37105 21465 ft 472 kts 354°
2026-04-27 15:50 31.43879 104.36912 21756 ft 474 kts 354°
2026-04-27 15:51 31.47182 104.36712 22054 ft 476 kts 354°
2026-04-27 15:51 31.50493 104.36514 22360 ft 478 kts 354°
2026-04-27 15:51 31.53830 104.36316 22665 ft 481 kts 354°
2026-04-27 15:51 31.57175 104.36118 22967 ft 482 kts 354°
2026-04-27 15:52 31.60533 104.35917 23279 ft 484 kts 354°
2026-04-27 15:52 31.63906 104.35719 23555 ft 486 kts 354°
2026-04-27 15:52 31.67292 104.35523 23793 ft 488 kts 354°
2026-04-27 15:52 31.70645 104.35329 24050 ft 489 kts 354°
2026-04-27 15:53 31.74048 104.35132 24286 ft 490 kts 354°
2026-04-27 15:53 31.77454 104.34930 24527 ft 491 kts 354°
2026-04-27 15:53 31.80867 104.34737 24795 ft 492 kts 354°
2026-04-27 15:53 31.84286 104.34560 25115 ft 492 kts 354°
2026-04-27 15:54 31.87691 104.34394 25404 ft 492 kts 354°
2026-04-27 15:54 31.91130 104.34228 25692 ft 493 kts 355°
2026-04-27 15:54 31.94559 104.34059 25968 ft 493 kts 354°
2026-04-27 15:54 31.97936 104.33888 26322 ft 491 kts 354°
2026-04-27 15:55 32.01345 104.33711 26689 ft 490 kts 354°
2026-04-27 15:55 32.04741 104.33535 27087 ft 488 kts 354°
2026-04-27 15:55 32.08125 104.33361 27508 ft 485 kts 354°
2026-04-27 15:55 32.11495 104.33191 27816 ft 484 kts 354°
2026-04-27 15:56 32.14864 104.33021 28112 ft 484 kts 354°
2026-04-27 15:56 32.18226 104.32848 28399 ft 484 kts 354°
2026-04-27 15:56 32.21585 104.32673 28718 ft 483 kts 354°
2026-04-27 15:56 32.24896 104.32498 29045 ft 483 kts 354°
2026-04-27 15:57 32.28247 104.32323 29374 ft 482 kts 354°
2026-04-27 15:57 32.31599 104.32152 29681 ft 481 kts 354°
2026-04-27 15:57 32.34938 104.31984 29981 ft 481 kts 354°
2026-04-27 15:57 32.38286 104.31813 30196 ft 482 kts 353°
2026-04-27 15:58 32.41639 104.31638 30421 ft 482 kts 353°
2026-04-27 15:58 32.44993 104.31466 30676 ft 482 kts 353°
2026-04-27 15:58 32.48339 104.31301 30956 ft 481 kts 353°
2026-04-27 15:58 32.51685 104.31142 31228 ft 481 kts 353°
2026-04-27 15:59 32.55022 104.30989 31499 ft 480 kts 353°
2026-04-27 15:59 32.58316 104.30837 31802 ft 479 kts 353°
2026-04-27 15:59 32.61646 104.30681 32089 ft 479 kts 353°
2026-04-27 15:59 32.64974 104.30522 32380 ft 479 kts 353°
2026-04-27 16:00 32.68297 104.30363 32700 ft 477 kts 353°
2026-04-27 16:00 32.71612 104.30204 32952 ft 477 kts 353°
2026-04-27 16:00 32.74925 104.30045 33223 ft 476 kts 353°
2026-04-27 16:00 32.78240 104.29887 33523 ft 475 kts 353°
2026-04-27 16:01 32.81530 104.29729 33777 ft 474 kts 353°
2026-04-27 16:01 32.84789 104.29569 34034 ft 473 kts 353°
2026-04-27 16:01 32.88074 104.29406 34243 ft 473 kts 352°
2026-04-27 16:02 32.94640 104.29079 34287 ft 472 kts 352°
2026-04-27 16:02 32.97921 104.28917 34451 ft 472 kts 352°
2026-04-27 16:02 33.01202 104.28757 34672 ft 472 kts 352°
2026-04-27 16:02 33.04479 104.28599 34847 ft 471 kts 352°
2026-04-27 16:03 33.07755 104.28447 35039 ft 471 kts 352°
2026-04-27 16:03 33.10981 104.28297 35170 ft 471 kts 352°
2026-04-27 16:03 33.14255 104.28136 35188 ft 471 kts 352°
2026-04-27 16:04 33.20792 104.27811 35188 ft 470 kts 352°
2026-04-27 16:04 33.27332 104.27499 35191 ft 470 kts 352°
2026-04-27 16:05 33.33816 104.26894 35196 ft 462 kts 342°
2026-04-27 16:05 33.39715 104.24373 35221 ft 448 kts 325°
2026-04-27 16:06 33.45109 104.20697 35223 ft 447 kts 324°
2026-04-27 16:06 33.50485 104.17029 35228 ft 446 kts 324°
2026-04-27 16:07 33.55903 104.13390 35221 ft 449 kts 329°
2026-04-27 16:07 33.61989 104.11304 35233 ft 465 kts 349°
2026-04-27 16:08 33.68460 104.11180 35240 ft 469 kts 354°
2026-04-27 16:08 33.74992 104.11194 35238 ft 469 kts 354°
2026-04-27 16:09 33.81519 104.11203 35237 ft 469 kts 354°
2026-04-27 16:09 33.91311 104.11200 35237 ft 469 kts 354°
2026-04-27 16:10 34.04311 104.11192 35230 ft 468 kts 353°
2026-04-27 16:11 34.14097 104.11189 35229 ft 469 kts 353°
2026-04-27 16:12 34.23838 104.11195 35244 ft 469 kts 352°
2026-04-27 16:13 34.33619 104.11190 35233 ft 469 kts 352°
2026-04-27 16:13 34.43409 104.11196 35249 ft 469 kts 352°
2026-04-27 16:14 34.56440 104.11193 35231 ft 471 kts 352°
2026-04-27 16:15 34.69550 104.11190 35258 ft 471 kts 352°
2026-04-27 16:16 34.82655 104.11183 35243 ft 471 kts 352°
2026-04-27 16:17 34.95724 104.11202 35255 ft 471 kts 352°
2026-04-27 16:18 35.08462 104.11200 35243 ft 471 kts 352°
2026-04-27 16:19 35.14951 104.11198 35233 ft 471 kts 352°
2026-04-27 16:20 35.28117 104.11200 35242 ft 472 kts 352°
2026-04-27 16:21 35.37927 104.11193 35240 ft 472 kts 352°
2026-04-27 16:22 35.51080 104.11193 35248 ft 473 kts 352°
2026-04-27 16:22 35.60957 104.11233 35243 ft 473 kts 352°
2026-04-27 16:23 35.70734 104.11284 35237 ft 473 kts 352°
2026-04-27 16:24 35.77367 104.11310 35236 ft 473 kts 352°
2026-04-27 16:25 35.89695 104.10500 35233 ft 466 kts 346°
2026-04-27 16:26 36.02599 104.09177 35239 ft 468 kts 347°
2026-04-27 16:27 36.15579 104.07770 35243 ft 468 kts 346°
2026-04-27 16:27 36.25075 104.06750 35217 ft 439 kts 345°
2026-04-27 16:28 36.30608 104.04766 35225 ft 404 kts 322°
2026-04-27 16:28 36.35082 104.00739 35225 ft 395 kts 306°
2026-04-27 16:29 36.39737 103.92441 35243 ft 396 kts 293°
2026-04-27 16:30 36.45355 103.80506 35262 ft 402 kts 293°
2026-04-27 16:31 36.52370 103.65524 35276 ft 403 kts 294°
2026-04-27 16:32 36.56126 103.60219 35259 ft 413 kts 314°
2026-04-27 16:32 36.58471 103.58206 35264 ft 403 kts 317°
2026-04-27 16:33 36.63014 103.54420 35266 ft 391 kts 316°
2026-04-27 16:33 36.65280 103.52499 35269 ft 397 kts 316°
2026-04-27 16:33 36.69851 103.48598 35289 ft 404 kts 316°
2026-04-27 16:34 36.72156 103.46671 35286 ft 392 kts 316°
2026-04-27 16:34 36.74410 103.44809 35277 ft 384 kts 316°
2026-04-27 16:34 36.78760 103.41195 35286 ft 367 kts 315°
2026-04-27 16:35 36.82916 103.37674 35289 ft 355 kts 315°
2026-04-27 16:36 36.88957 103.32474 35312 ft 356 kts 314°
2026-04-27 16:36 36.92891 103.28739 35314 ft 355 kts 306°
2026-04-27 16:37 36.95932 103.23966 35310 ft 350 kts 294°
2026-04-27 16:37 36.98554 103.18742 35331 ft 361 kts 294°
2026-04-27 16:38 37.01282 103.13321 35346 ft 373 kts 294°
2026-04-27 16:38 37.04093 103.07741 35327 ft 385 kts 295°
2026-04-27 16:39 37.06946 103.02077 35329 ft 388 kts 295°
2026-04-27 16:39 37.09825 102.96346 35325 ft 389 kts 295°
2026-04-27 16:40 37.12694 102.90608 35315 ft 389 kts 295°
2026-04-27 16:40 37.15567 102.84859 35316 ft 389 kts 295°
2026-04-27 16:41 37.18430 102.79106 35317 ft 389 kts 295°
2026-04-27 16:41 37.21275 102.73385 35322 ft 389 kts 295°
2026-04-27 16:42 37.24141 102.67617 35320 ft 389 kts 294°
2026-04-27 16:42 37.27002 102.61848 35314 ft 389 kts 294°
2026-04-27 16:43 37.29859 102.56081 35324 ft 388 kts 294°
2026-04-27 16:43 37.32682 102.50365 35324 ft 387 kts 295°
2026-04-27 16:44 37.35427 102.44589 35303 ft 380 kts 288°
2026-04-27 16:44 37.36939 102.38360 35295 ft 373 kts 279°
2026-04-27 16:45 37.38185 102.32015 35290 ft 373 kts 279°
2026-04-27 16:45 37.39420 102.25717 35288 ft 374 kts 279°
2026-04-27 16:46 37.40673 102.19368 35290 ft 374 kts 279°
2026-04-27 16:46 37.41914 102.13008 35286 ft 375 kts 279°
2026-04-27 16:47 37.43146 102.06648 35287 ft 374 kts 279°
2026-04-27 16:47 37.44372 102.00334 35253 ft 374 kts 279°
2026-04-27 16:48 37.45599 101.93957 35252 ft 376 kts 279°
2026-04-27 16:48 37.46828 101.87567 35251 ft 377 kts 279°
2026-04-27 16:49 37.48678 101.77939 35261 ft 378 kts 279°
2026-04-27 16:49 37.49894 101.71557 35243 ft 377 kts 279°
2026-04-27 16:50 37.51832 101.65355 35242 ft 388 kts 291°
2026-04-27 16:50 37.54401 101.59374 35246 ft 389 kts 291°
2026-04-27 16:51 37.56968 101.53371 35234 ft 390 kts 291°
2026-04-27 16:51 37.59522 101.47374 35252 ft 391 kts 291°
2026-04-27 16:52 37.62089 101.41330 35246 ft 391 kts 291°
2026-04-27 16:52 37.64653 101.35284 35284 ft 391 kts 290°
2026-04-27 16:53 37.67195 101.29287 35268 ft 391 kts 290°
2026-04-27 16:53 37.69765 101.23203 35240 ft 394 kts 291°
2026-04-27 16:54 37.72339 101.17110 35236 ft 396 kts 291°
2026-04-27 16:54 37.74938 101.10926 35235 ft 397 kts 290°
2026-04-27 16:55 37.77509 101.04797 35246 ft 397 kts 291°
2026-04-27 16:55 37.80095 100.98626 35240 ft 398 kts 290°
2026-04-27 16:56 37.82683 100.92435 35247 ft 399 kts 290°
2026-04-27 16:56 37.85350 100.86274 35245 ft 400 kts 292°
2026-04-27 16:57 37.88128 100.80159 35250 ft 401 kts 292°
2026-04-27 16:57 37.90878 100.74072 35266 ft 401 kts 292°
2026-04-27 16:58 37.93621 100.67929 35263 ft 400 kts 292°
2026-04-27 16:58 37.96344 100.61782 35295 ft 400 kts 292°
2026-04-27 16:59 37.99066 100.55627 35289 ft 400 kts 292°
2026-04-27 16:59 38.01737 100.49576 35286 ft 400 kts 292°
2026-04-27 17:00 38.05820 100.40319 35280 ft 401 kts 292°
2026-04-27 17:01 38.08546 100.34133 35280 ft 401 kts 292°
2026-04-27 17:01 38.11255 100.27968 35276 ft 401 kts 292°
2026-04-27 17:02 38.13960 100.21788 35285 ft 401 kts 292°
2026-04-27 17:02 38.16654 100.15629 35286 ft 402 kts 293°
2026-04-27 17:03 38.19370 100.09423 35283 ft 402 kts 293°
2026-04-27 17:03 38.22087 100.03203 35276 ft 403 kts 293°
2026-04-27 17:04 38.24795 99.96971 35296 ft 404 kts 293°
2026-04-27 17:04 38.27515 99.90700 35284 ft 404 kts 293°
2026-04-27 17:05 38.30227 99.84444 35277 ft 405 kts 293°
2026-04-27 17:05 38.32948 99.78154 35275 ft 406 kts 294°
2026-04-27 17:06 38.35672 99.71845 35273 ft 407 kts 294°
2026-04-27 17:06 38.38370 99.65564 35269 ft 407 kts 294°
2026-04-27 17:07 38.41077 99.59256 35270 ft 408 kts 294°
2026-04-27 17:07 38.43810 99.52908 35274 ft 409 kts 294°
2026-04-27 17:08 38.46536 99.46545 35279 ft 409 kts 294°
2026-04-27 17:08 38.49173 99.40362 35285 ft 409 kts 294°
2026-04-27 17:09 38.51887 99.33979 35277 ft 409 kts 294°
2026-04-27 17:09 38.54610 99.27591 35276 ft 410 kts 294°
2026-04-27 17:10 38.57331 99.21206 35284 ft 410 kts 294°
2026-04-27 17:10 38.60047 99.14813 35284 ft 409 kts 294°
2026-04-27 17:11 38.62717 99.08500 35289 ft 410 kts 295°
2026-04-27 17:11 38.66782 98.98869 35293 ft 410 kts 295°
2026-04-27 17:12 38.70838 98.89232 35289 ft 410 kts 295°
2026-04-27 17:13 38.73513 98.82849 35290 ft 410 kts 295°
2026-04-27 17:13 38.76206 98.76415 35287 ft 410 kts 295°
2026-04-27 17:14 38.78891 98.69981 35285 ft 409 kts 295°
2026-04-27 17:14 38.81579 98.63546 35306 ft 409 kts 295°
2026-04-27 17:15 38.84242 98.57154 35299 ft 409 kts 295°
2026-04-27 17:15 38.86914 98.50708 35292 ft 409 kts 295°
2026-04-27 17:16 38.89536 98.44378 35283 ft 409 kts 295°
2026-04-27 17:16 38.92203 98.37938 35284 ft 408 kts 295°
2026-04-27 17:17 38.94861 98.31492 35253 ft 408 kts 296°
2026-04-27 17:17 38.97493 98.25085 35249 ft 408 kts 296°
2026-04-27 17:18 39.01473 98.15401 35249 ft 409 kts 296°
2026-04-27 17:18 39.04126 98.08938 35256 ft 409 kts 296°
2026-04-27 17:19 39.06756 98.02510 35257 ft 409 kts 295°
2026-04-27 17:19 39.09400 97.96028 35263 ft 409 kts 296°
2026-04-27 17:20 39.12039 97.89549 35248 ft 409 kts 296°
2026-04-27 17:20 39.14670 97.83068 35245 ft 408 kts 296°
2026-04-27 17:21 39.17300 97.76575 35252 ft 409 kts 296°
2026-04-27 17:21 39.19914 97.70123 35256 ft 409 kts 296°
2026-04-27 17:22 39.22535 97.63621 35252 ft 409 kts 296°
2026-04-27 17:22 39.25159 97.57117 35244 ft 409 kts 297°
2026-04-27 17:23 39.27786 97.50611 35251 ft 409 kts 297°
2026-04-27 17:23 39.30389 97.44147 35266 ft 408 kts 297°
2026-04-27 17:24 39.33004 97.37635 35265 ft 408 kts 297°
2026-04-27 17:24 39.35622 97.31122 35293 ft 408 kts 298°
2026-04-27 17:25 39.38207 97.24667 35275 ft 407 kts 297°
2026-04-27 17:25 39.40801 97.18168 35271 ft 407 kts 297°
2026-04-27 17:26 39.43389 97.11667 35267 ft 407 kts 297°
2026-04-27 17:26 39.45978 97.05161 35249 ft 406 kts 297°
2026-04-27 17:27 39.48566 96.98655 35147 ft 407 kts 298°
2026-04-27 17:27 39.49852 96.95452 34909 ft 406 kts 298°
2026-04-27 17:27 39.51143 96.92248 34676 ft 406 kts 298°
2026-04-27 17:28 39.52458 96.88980 34241 ft 404 kts 298°
2026-04-27 17:28 39.53747 96.85767 33973 ft 402 kts 298°
2026-04-27 17:28 39.56322 96.79316 33401 ft 403 kts 298°
2026-04-27 17:29 39.57608 96.76089 33139 ft 403 kts 299°
2026-04-27 17:29 39.58895 96.72856 32872 ft 404 kts 299°
2026-04-27 17:29 39.60183 96.69617 32619 ft 404 kts 299°
2026-04-27 17:29 39.61469 96.66379 32380 ft 405 kts 299°
2026-04-27 17:30 39.62744 96.63164 32148 ft 406 kts 299°
2026-04-27 17:30 39.65342 96.56633 31647 ft 408 kts 299°
2026-04-27 17:30 39.66661 96.53363 31399 ft 409 kts 300°
2026-04-27 17:31 39.67985 96.50094 31134 ft 410 kts 300°
2026-04-27 17:31 39.69306 96.46817 30893 ft 410 kts 300°
2026-04-27 17:31 39.70628 96.43528 30628 ft 409 kts 300°
2026-04-27 17:31 39.71943 96.40257 30393 ft 409 kts 300°
2026-04-27 17:32 39.73243 96.37028 30132 ft 409 kts 300°
2026-04-27 17:32 39.75889 96.30453 29564 ft 412 kts 300°
2026-04-27 17:32 39.77219 96.27140 29260 ft 415 kts 300°
2026-04-27 17:33 39.78551 96.23806 28996 ft 416 kts 300°
2026-04-27 17:33 39.79885 96.20453 28716 ft 418 kts 300°
2026-04-27 17:33 39.81224 96.17080 28440 ft 420 kts 300°
2026-04-27 17:33 39.82567 96.13699 28175 ft 423 kts 300°
2026-04-27 17:34 39.83900 96.10333 27911 ft 425 kts 300°
2026-04-27 17:34 39.85256 96.06901 27620 ft 427 kts 300°
2026-04-27 17:34 39.86619 96.03460 27355 ft 429 kts 300°
2026-04-27 17:34 39.87992 96.00004 27096 ft 431 kts 300°
2026-04-27 17:35 39.89375 95.96518 26841 ft 434 kts 300°
2026-04-27 17:35 39.90761 95.93013 26586 ft 437 kts 299°
2026-04-27 17:35 39.92152 95.89483 26334 ft 439 kts 299°
2026-04-27 17:35 39.93542 95.85945 26092 ft 441 kts 299°
2026-04-27 17:36 39.94926 95.82420 25847 ft 443 kts 299°
2026-04-27 17:36 39.96320 95.78874 25607 ft 445 kts 299°
2026-04-27 17:36 39.97732 95.75229 25364 ft 447 kts 298°
2026-04-27 17:36 39.99105 95.71573 25108 ft 450 kts 297°
2026-04-27 17:37 40.00456 95.67890 24857 ft 451 kts 297°
2026-04-27 17:37 40.01802 95.64184 24625 ft 453 kts 297°
2026-04-27 17:37 40.03150 95.60467 24384 ft 454 kts 297°
2026-04-27 17:37 40.04508 95.56735 24152 ft 456 kts 297°
2026-04-27 17:38 40.05852 95.53058 23450 ft 457 kts 297°
2026-04-27 17:38 40.07258 95.49339 22472 ft 456 kts 300°
2026-04-27 17:38 40.08996 95.45912 21719 ft 449 kts 309°
2026-04-27 17:38 40.11034 95.42858 20965 ft 444 kts 313°
2026-04-27 17:39 40.13092 95.39873 20222 ft 440 kts 313°
2026-04-27 17:39 40.15127 95.36903 19490 ft 436 kts 312°
2026-04-27 17:39 40.17123 95.33977 18797 ft 433 kts 312°
2026-04-27 17:39 40.18443 95.32035 18316 ft 431 kts 313°
2026-04-27 17:40 40.21050 95.28192 17373 ft 424 kts 313°
2026-04-27 17:40 40.23009 95.25303 16734 ft 418 kts 312°
2026-04-27 17:40 40.24930 95.22474 16115 ft 413 kts 312°
2026-04-27 17:40 40.26686 95.19537 15511 ft 408 kts 303°
2026-04-27 17:41 40.27985 95.16262 14939 ft 404 kts 292°
2026-04-27 17:41 40.28787 95.12764 14365 ft 400 kts 282°
2026-04-27 17:41 40.29095 95.09215 13808 ft 396 kts 272°
2026-04-27 17:41 40.28944 95.05625 13224 ft 392 kts 265°
2026-04-27 17:42 40.28671 95.02097 12687 ft 386 kts 265°
2026-04-27 17:42 40.28404 94.98628 12149 ft 381 kts 265°
2026-04-27 17:42 40.28228 94.96343 11792 ft 378 kts 265°
2026-04-27 17:42 40.27875 94.91825 11407 ft 364 kts 265°
2026-04-27 17:43 40.27622 94.88600 11280 ft 349 kts 265°
2026-04-27 17:43 40.27461 94.86539 11193 ft 339 kts 265°
2026-04-27 17:43 40.27228 94.83553 11067 ft 322 kts 264°
2026-04-27 17:43 40.26936 94.79859 10719 ft 298 kts 264°
2026-04-27 17:44 40.26724 94.77187 10276 ft 294 kts 264°
2026-04-27 17:44 40.26583 94.75405 10106 ft 290 kts 264°
2026-04-27 17:44 40.26313 94.71966 9816 ft 284 kts 264°
2026-04-27 17:44 40.26107 94.69385 9689 ft 285 kts 264°
2026-04-27 17:45 40.25898 94.66812 9558 ft 285 kts 264°
2026-04-27 17:45 40.25760 94.65127 9470 ft 278 kts 264°
2026-04-27 17:45 40.25469 94.61857 9262 ft 264 kts 258°
2026-04-27 17:45 40.25073 94.60347 8818 ft 270 kts 240°
2026-04-27 17:46 40.23296 94.58112 7859 ft 270 kts 204°
2026-04-27 17:46 40.22096 94.57619 7424 ft 265 kts 185°
2026-04-27 17:46 40.20322 94.57696 7255 ft 249 kts 173°
2026-04-27 17:46 40.18122 94.57987 7087 ft 233 kts 173°
2026-04-27 17:47 40.17084 94.58133 7022 ft 221 kts 169°
2026-04-27 17:47 40.16141 94.58544 6944 ft 204 kts 150°
2026-04-27 17:47 40.14933 94.60214 6598 ft 187 kts 115°
2026-04-27 17:47 40.14658 94.61808 6302 ft 177 kts 90°
2026-04-27 17:48 40.14802 94.63816 5991 ft 161 kts 84°
2026-04-27 17:48 40.14881 94.64789 5850 ft 158 kts 84°
2026-04-27 17:48 40.14982 94.66381 5612 ft 155 kts 93°
2026-04-27 17:48 40.15002 94.67309 5508 ft 155 kts 82°
2026-04-27 17:49 40.15157 94.68694 5296 ft 153 kts 83°
2026-04-27 17:49 40.15289 94.70071 5097 ft 152 kts 83°
2026-04-27 17:49 40.15408 94.71440 4893 ft 151 kts 83°
2026-04-27 17:49 40.15521 94.72806 4706 ft 151 kts 84°
2026-04-27 17:50 40.15632 94.74176 4502 ft 152 kts 84°
2026-04-27 17:50 40.15845 94.76825 4109 ft 147 kts 84°
2026-04-27 17:50 40.15950 94.78150 3903 ft 149 kts 83°
2026-04-27 17:51 40.16058 94.79508 3716 ft 149 kts 84°
2026-04-27 17:51 40.16156 94.80704 3698 ft 120 kts 82°
2026-04-27 17:51 40.16207 94.81362 3694 ft 33 kts 84°
2026-04-27 17:51 40.16221 94.81603 3693 ft 25 kts 83°
2026-04-27 17:52 40.16247 94.81811 3697 ft 4 kts 148°
2026-04-27 17:52 40.16241 94.81805 3694 ft 1 kts 222°
2026-04-27 17:52 40.16236 94.81784 3694 ft 7 kts 260°
2026-04-27 17:52 40.16227 94.81671 3693 ft 19 kts 264°
2026-04-27 17:53 40.16212 94.81460 3694 ft 29 kts 264°
2026-04-27 17:53 40.16237 94.81343 3694 ft 8 kts 334°
2026-04-27 17:53 40.16273 94.81334 3695 ft 3 kts 355°
2026-04-27 17:53 40.16297 94.81332 3697 ft 5 kts 355°
2026-04-27 17:54 40.16361 94.81325 3698 ft 16 kts 355°
2026-04-27 17:54 40.16446 94.81259 3699 ft 12 kts 265°
2026-04-27 17:54 40.16440 94.81154 3699 ft 11 kts 265°
2026-04-27 17:54 40.16433 94.81065 3699 ft 9 kts 264°
2026-04-27 17:55 40.16427 94.80986 3699 ft 11 kts 264°
2026-04-27 17:55 40.16416 94.80855 3699 ft 17 kts 264°
2026-04-27 17:55 40.16407 94.80716 3699 ft 9 kts 275°
2026-04-27 17:55 40.16444 94.80687 3699 ft 5 kts 346°
2026-04-27 17:56 40.16476 94.80681 3699 ft 4 kts 353°
2026-04-27 17:56 40.16496 94.80679 3699 ft 2 kts 354°
2026-04-27 17:56 40.16500 94.80678 3699 ft 0 kts 354°